Year,Month,Day,Hour,Minute,Value (Times are PST for temperature in C)
2013,07,14,00,00,16.00
2013,07,14,00,01,16.00
2013,07,14,00,02,16.00
2013,07,14,00,03,16.00
2013,07,14,00,04,16.00
2013,07,14,00,05,16.00
2013,07,14,00,06,16.00
2013,07,14,00,07,15.90
2013,07,14,00,08,15.90
2013,07,14,00,09,15.90
2013,07,14,00,10,15.90
2013,07,14,00,11,15.90
2013,07,14,00,12,15.90
2013,07,14,00,13,15.90
2013,07,14,00,14,15.90
2013,07,14,00,15,15.90
2013,07,14,00,16,15.90
2013,07,14,00,17,15.90
2013,07,14,00,18,15.90
2013,07,14,00,19,15.90
2013,07,14,00,20,15.90
2013,07,14,00,21,15.90
2013,07,14,00,22,15.90
2013,07,14,00,23,15.90
2013,07,14,00,24,15.90
2013,07,14,00,25,15.90
2013,07,14,00,26,15.90
2013,07,14,00,27,15.90
2013,07,14,00,28,15.90
2013,07,14,00,29,15.90
2013,07,14,00,30,15.90
2013,07,14,00,31,15.80
2013,07,14,00,32,15.80
2013,07,14,00,33,15.80
2013,07,14,00,34,15.80
2013,07,14,00,35,15.80
2013,07,14,00,36,15.80
2013,07,14,00,37,15.80
2013,07,14,00,38,15.80
2013,07,14,00,39,15.90
2013,07,14,00,40,15.80
2013,07,14,00,41,15.80
2013,07,14,00,42,15.80
2013,07,14,00,43,15.80
2013,07,14,00,44,15.80
2013,07,14,00,45,15.80
2013,07,14,00,46,15.80
2013,07,14,00,47,15.80
2013,07,14,00,48,15.80
2013,07,14,00,49,15.80
2013,07,14,00,50,15.80
2013,07,14,00,51,15.80
2013,07,14,00,52,15.80
2013,07,14,00,53,15.80
2013,07,14,00,54,15.70
2013,07,14,00,55,15.70
2013,07,14,00,56,15.70
2013,07,14,00,57,15.60
2013,07,14,00,58,15.60
2013,07,14,00,59,15.60
2013,07,14,01,00,15.60
2013,07,14,01,01,15.50
2013,07,14,01,02,15.50
2013,07,14,01,03,15.40
2013,07,14,01,04,15.40
2013,07,14,01,05,15.40
2013,07,14,01,06,15.30
2013,07,14,01,07,15.30
2013,07,14,01,08,15.20
2013,07,14,01,09,15.20
2013,07,14,01,10,15.20
2013,07,14,01,11,15.20
2013,07,14,01,12,15.20
2013,07,14,01,13,15.20
2013,07,14,01,14,15.30
2013,07,14,01,15,15.30
2013,07,14,01,16,15.30
2013,07,14,01,17,15.30
2013,07,14,01,18,15.30
2013,07,14,01,19,15.30
2013,07,14,01,20,15.40
2013,07,14,01,21,15.50
2013,07,14,01,22,15.70
2013,07,14,01,23,15.80
2013,07,14,01,24,15.90
2013,07,14,01,25,16.00
2013,07,14,01,26,16.10
2013,07,14,01,27,16.10
2013,07,14,01,28,16.20
2013,07,14,01,29,16.20
2013,07,14,01,30,16.20
2013,07,14,01,31,16.30
2013,07,14,01,32,16.30
2013,07,14,01,33,16.30
2013,07,14,01,34,16.30
2013,07,14,01,35,16.40
2013,07,14,01,36,16.40
2013,07,14,01,37,16.40
2013,07,14,01,38,16.50
2013,07,14,01,39,16.50
2013,07,14,01,40,16.50
2013,07,14,01,41,16.60
2013,07,14,01,42,16.60
2013,07,14,01,43,16.60
2013,07,14,01,44,16.70
2013,07,14,01,45,16.70
2013,07,14,01,46,16.70
2013,07,14,01,47,16.70
2013,07,14,01,48,16.60
2013,07,14,01,49,16.50
2013,07,14,01,50,16.50
2013,07,14,01,51,16.40
2013,07,14,01,52,16.40
2013,07,14,01,53,16.40
2013,07,14,01,54,16.40
2013,07,14,01,55,16.30
2013,07,14,01,56,16.30
2013,07,14,01,57,16.30
2013,07,14,01,58,16.20
2013,07,14,01,59,16.20
2013,07,14,02,00,16.20
2013,07,14,02,01,16.20
2013,07,14,02,02,16.20
2013,07,14,02,03,16.20
2013,07,14,02,04,16.20
2013,07,14,02,05,16.20
2013,07,14,02,06,16.20
2013,07,14,02,07,16.20
2013,07,14,02,08,16.20
2013,07,14,02,09,16.20
2013,07,14,02,10,16.20
2013,07,14,02,11,16.20
2013,07,14,02,12,16.20
2013,07,14,02,13,16.20
2013,07,14,02,14,16.10
2013,07,14,02,15,16.10
2013,07,14,02,16,16.10
2013,07,14,02,17,16.10
2013,07,14,02,18,16.00
2013,07,14,02,19,16.00
2013,07,14,02,20,16.00
2013,07,14,02,21,15.90
2013,07,14,02,22,15.90
2013,07,14,02,23,15.90
2013,07,14,02,24,15.80
2013,07,14,02,25,15.80
2013,07,14,02,26,15.80
2013,07,14,02,27,15.80
2013,07,14,02,28,15.80
2013,07,14,02,29,15.80
2013,07,14,02,30,15.80
2013,07,14,02,31,15.80
2013,07,14,02,32,15.80
2013,07,14,02,33,15.80
2013,07,14,02,34,15.90
2013,07,14,02,35,15.90
2013,07,14,02,36,15.90
2013,07,14,02,37,15.90
2013,07,14,02,38,16.00
2013,07,14,02,39,16.00
2013,07,14,02,40,16.00
2013,07,14,02,41,16.00
2013,07,14,02,42,16.00
2013,07,14,02,43,16.00
2013,07,14,02,44,16.00
2013,07,14,02,45,16.00
2013,07,14,02,46,16.00
2013,07,14,02,47,16.10
2013,07,14,02,48,16.10
2013,07,14,02,49,16.10
2013,07,14,02,50,16.10
2013,07,14,02,51,16.10
2013,07,14,02,52,16.10
2013,07,14,02,53,16.10
2013,07,14,02,54,16.10
2013,07,14,02,55,16.10
2013,07,14,02,56,16.00
2013,07,14,02,57,16.00
2013,07,14,02,58,16.00
2013,07,14,02,59,16.00
2013,07,14,03,00,16.00
2013,07,14,03,01,15.90
2013,07,14,03,02,15.90
2013,07,14,03,03,15.90
2013,07,14,03,04,15.90
2013,07,14,03,05,15.90
2013,07,14,03,06,15.80
2013,07,14,03,07,15.80
2013,07,14,03,08,15.80
2013,07,14,03,09,15.80
2013,07,14,03,10,15.70
2013,07,14,03,11,15.70
2013,07,14,03,12,15.70
2013,07,14,03,13,15.70
2013,07,14,03,14,15.70
2013,07,14,03,15,15.70
2013,07,14,03,16,15.70
2013,07,14,03,17,15.70
2013,07,14,03,18,15.60
2013,07,14,03,19,15.60
2013,07,14,03,20,15.60
2013,07,14,03,21,15.60
2013,07,14,03,22,15.60
2013,07,14,03,23,15.50
2013,07,14,03,24,15.50
2013,07,14,03,25,15.50
2013,07,14,03,26,15.60
2013,07,14,03,27,15.50
2013,07,14,03,28,15.50
2013,07,14,03,29,15.50
2013,07,14,03,30,15.50
2013,07,14,03,31,15.50
2013,07,14,03,32,15.60
2013,07,14,03,33,15.60
2013,07,14,03,34,15.60
2013,07,14,03,35,15.60
2013,07,14,03,36,15.60
2013,07,14,03,37,15.50
2013,07,14,03,38,15.50
2013,07,14,03,39,15.50
2013,07,14,03,40,15.50
2013,07,14,03,41,15.50
2013,07,14,03,42,15.50
2013,07,14,03,43,15.50
2013,07,14,03,44,15.50
2013,07,14,03,45,15.50
2013,07,14,03,46,15.50
2013,07,14,03,47,15.50
2013,07,14,03,48,15.50
2013,07,14,03,49,15.50
2013,07,14,03,50,15.50
2013,07,14,03,51,15.50
2013,07,14,03,52,15.40
2013,07,14,03,53,15.40
2013,07,14,03,54,15.40
2013,07,14,03,55,15.40
2013,07,14,03,56,15.50
2013,07,14,03,57,15.50
2013,07,14,03,58,15.50
2013,07,14,03,59,15.50
2013,07,14,04,00,15.60
2013,07,14,04,01,15.50
2013,07,14,04,02,15.60
2013,07,14,04,03,15.60
2013,07,14,04,04,15.60
2013,07,14,04,05,15.60
2013,07,14,04,06,15.60
2013,07,14,04,07,15.60
2013,07,14,04,08,15.60
2013,07,14,04,09,15.60
2013,07,14,04,10,15.60
2013,07,14,04,11,15.60
2013,07,14,04,12,15.60
2013,07,14,04,13,15.60
2013,07,14,04,14,15.60
2013,07,14,04,15,15.50
2013,07,14,04,16,15.50
2013,07,14,04,17,15.50
2013,07,14,04,18,15.50
2013,07,14,04,19,15.50
2013,07,14,04,20,15.50
2013,07,14,04,21,15.40
2013,07,14,04,22,15.40
2013,07,14,04,23,15.40
2013,07,14,04,24,15.40
2013,07,14,04,25,15.40
2013,07,14,04,26,15.40
2013,07,14,04,27,15.40
2013,07,14,04,28,15.40
2013,07,14,04,29,15.40
2013,07,14,04,30,15.40
2013,07,14,04,31,15.30
2013,07,14,04,32,15.30
2013,07,14,04,33,15.30
2013,07,14,04,34,15.30
2013,07,14,04,35,15.30
2013,07,14,04,36,15.30
2013,07,14,04,37,15.30
2013,07,14,04,38,15.20
2013,07,14,04,39,15.20
2013,07,14,04,40,15.20
2013,07,14,04,41,15.20
2013,07,14,04,42,15.20
2013,07,14,04,43,15.20
2013,07,14,04,44,15.20
2013,07,14,04,45,15.10
2013,07,14,04,46,15.10
2013,07,14,04,47,15.10
2013,07,14,04,48,15.00
2013,07,14,04,49,15.00
2013,07,14,04,50,15.00
2013,07,14,04,51,15.00
2013,07,14,04,52,15.00
2013,07,14,04,53,15.00
2013,07,14,04,54,15.00
2013,07,14,04,55,15.00
2013,07,14,04,56,15.00
2013,07,14,04,57,15.00
2013,07,14,04,58,15.00
2013,07,14,04,59,15.00
2013,07,14,05,00,15.00
2013,07,14,05,01,15.00
2013,07,14,05,02,15.10
2013,07,14,05,03,15.00
2013,07,14,05,04,15.10
2013,07,14,05,05,15.10
2013,07,14,05,06,15.10
2013,07,14,05,07,15.10
2013,07,14,05,08,15.10
2013,07,14,05,09,15.10
2013,07,14,05,10,15.10
2013,07,14,05,11,15.10
2013,07,14,05,12,15.10
2013,07,14,05,13,15.10
2013,07,14,05,14,15.10
2013,07,14,05,15,15.10
2013,07,14,05,16,15.20
2013,07,14,05,17,15.20
2013,07,14,05,18,15.20
2013,07,14,05,19,15.20
2013,07,14,05,20,15.20
2013,07,14,05,21,15.20
2013,07,14,05,22,15.20
2013,07,14,05,23,15.20
2013,07,14,05,24,15.20
2013,07,14,05,25,15.20
2013,07,14,05,26,15.20
2013,07,14,05,27,15.20
2013,07,14,05,28,15.10
2013,07,14,05,29,15.10
2013,07,14,05,30,15.10
2013,07,14,05,31,15.00
2013,07,14,05,32,15.00
2013,07,14,05,33,15.00
2013,07,14,05,34,15.00
2013,07,14,05,35,15.00
2013,07,14,05,36,15.00
2013,07,14,05,37,15.00
2013,07,14,05,38,15.00
2013,07,14,05,39,15.00
2013,07,14,05,40,15.00
2013,07,14,05,41,15.00
2013,07,14,05,42,15.00
2013,07,14,05,43,15.00
2013,07,14,05,44,15.00
2013,07,14,05,45,15.00
2013,07,14,05,46,15.00
2013,07,14,05,47,15.00
2013,07,14,05,48,15.00
2013,07,14,05,49,15.00
2013,07,14,05,50,15.00
2013,07,14,05,51,14.90
2013,07,14,05,52,14.90
2013,07,14,05,53,14.90
2013,07,14,05,54,14.90
2013,07,14,05,55,14.80
2013,07,14,05,56,14.80
2013,07,14,05,57,14.80
2013,07,14,05,58,14.80
2013,07,14,05,59,14.80
2013,07,14,06,00,14.80
2013,07,14,06,01,14.90
2013,07,14,06,02,14.90
2013,07,14,06,03,15.00
2013,07,14,06,04,15.00
2013,07,14,06,05,15.00
2013,07,14,06,06,15.00
2013,07,14,06,07,15.00
2013,07,14,06,08,15.00
2013,07,14,06,09,15.00
2013,07,14,06,10,15.00
2013,07,14,06,11,15.10
2013,07,14,06,12,15.10
2013,07,14,06,13,15.20
2013,07,14,06,14,15.20
2013,07,14,06,15,15.20
2013,07,14,06,16,15.20
2013,07,14,06,17,15.30
2013,07,14,06,18,15.30
2013,07,14,06,19,15.30
2013,07,14,06,20,15.30
2013,07,14,06,21,15.30
2013,07,14,06,22,15.30
2013,07,14,06,23,15.30
2013,07,14,06,24,15.40
2013,07,14,06,25,15.40
2013,07,14,06,26,15.40
2013,07,14,06,27,15.40
2013,07,14,06,28,15.40
2013,07,14,06,29,15.40
2013,07,14,06,30,15.40
2013,07,14,06,31,15.50
2013,07,14,06,32,15.50
2013,07,14,06,33,15.60
2013,07,14,06,34,15.60
2013,07,14,06,35,15.60
2013,07,14,06,36,15.60
2013,07,14,06,37,15.60
2013,07,14,06,38,15.60
2013,07,14,06,39,15.70
2013,07,14,06,40,15.70
2013,07,14,06,41,15.70
2013,07,14,06,42,15.80
2013,07,14,06,43,15.80
2013,07,14,06,44,15.80
2013,07,14,06,45,15.80
2013,07,14,06,46,15.90
2013,07,14,06,47,15.90
2013,07,14,06,48,15.90
2013,07,14,06,49,16.00
2013,07,14,06,50,16.00
2013,07,14,06,51,16.00
2013,07,14,06,52,16.10
2013,07,14,06,53,16.10
2013,07,14,06,54,16.10
2013,07,14,06,55,16.10
2013,07,14,06,56,16.20
2013,07,14,06,57,16.20
2013,07,14,06,58,16.20
2013,07,14,06,59,16.30
2013,07,14,07,00,16.30
2013,07,14,07,01,16.30
2013,07,14,07,02,16.40
2013,07,14,07,03,16.40
2013,07,14,07,04,16.40
2013,07,14,07,05,16.40
2013,07,14,07,06,16.40
2013,07,14,07,07,16.40
2013,07,14,07,08,16.50
2013,07,14,07,09,16.50
2013,07,14,07,10,16.50
2013,07,14,07,11,16.50
2013,07,14,07,12,16.50
2013,07,14,07,13,16.60
2013,07,14,07,14,16.60
2013,07,14,07,15,16.60
2013,07,14,07,16,16.60
2013,07,14,07,17,16.60
2013,07,14,07,18,16.60
2013,07,14,07,19,16.60
2013,07,14,07,20,16.70
2013,07,14,07,21,16.70
2013,07,14,07,22,16.70
2013,07,14,07,23,16.70
2013,07,14,07,24,16.70
2013,07,14,07,25,16.70
2013,07,14,07,26,16.70
2013,07,14,07,27,16.70
2013,07,14,07,28,16.80
2013,07,14,07,29,16.80
2013,07,14,07,30,16.80
2013,07,14,07,31,16.90
2013,07,14,07,32,16.90
2013,07,14,07,33,17.00
2013,07,14,07,34,17.10
2013,07,14,07,35,17.10
2013,07,14,07,36,17.10
2013,07,14,07,37,17.20
2013,07,14,07,38,17.20
2013,07,14,07,39,17.20
2013,07,14,07,40,17.20
2013,07,14,07,41,17.30
2013,07,14,07,42,17.30
2013,07,14,07,43,17.30
2013,07,14,07,44,17.30
2013,07,14,07,45,17.30
2013,07,14,07,46,17.30
2013,07,14,07,47,17.30
2013,07,14,07,48,17.30
2013,07,14,07,49,17.40
2013,07,14,07,50,17.40
2013,07,14,07,51,17.40
2013,07,14,07,52,17.40
2013,07,14,07,53,17.40
2013,07,14,07,54,17.40
2013,07,14,07,55,17.40
2013,07,14,07,56,17.40
2013,07,14,07,57,17.50
2013,07,14,07,58,17.50
2013,07,14,07,59,17.60
2013,07,14,08,00,17.60
2013,07,14,08,01,17.60
2013,07,14,08,02,17.60
2013,07,14,08,03,17.60
2013,07,14,08,04,17.60
2013,07,14,08,05,17.60
2013,07,14,08,06,17.60
2013,07,14,08,07,17.60
2013,07,14,08,08,17.60
2013,07,14,08,09,17.60
2013,07,14,08,10,17.50
2013,07,14,08,11,17.50
2013,07,14,08,12,17.60
2013,07,14,08,13,17.60
2013,07,14,08,14,17.70
2013,07,14,08,15,17.70
2013,07,14,08,16,17.70
2013,07,14,08,17,17.70
2013,07,14,08,18,17.70
2013,07,14,08,19,17.80
2013,07,14,08,20,17.80
2013,07,14,08,21,17.80
2013,07,14,08,22,17.90
2013,07,14,08,23,17.90
2013,07,14,08,24,17.90
2013,07,14,08,25,17.90
2013,07,14,08,26,17.90
2013,07,14,08,27,17.90
2013,07,14,08,28,18.00
2013,07,14,08,29,18.00
2013,07,14,08,30,18.10
2013,07,14,08,31,18.10
2013,07,14,08,32,18.10
2013,07,14,08,33,18.10
2013,07,14,08,34,18.10
2013,07,14,08,35,18.10
2013,07,14,08,36,18.10
2013,07,14,08,37,18.10
2013,07,14,08,38,18.10
2013,07,14,08,39,18.10
2013,07,14,08,40,18.10
2013,07,14,08,41,18.10
2013,07,14,08,42,18.20
2013,07,14,08,43,18.20
2013,07,14,08,44,18.30
2013,07,14,08,45,18.30
2013,07,14,08,46,18.30
2013,07,14,08,47,18.30
2013,07,14,08,48,18.30
2013,07,14,08,49,18.30
2013,07,14,08,50,18.20
2013,07,14,08,51,18.20
2013,07,14,08,52,18.20
2013,07,14,08,53,18.20
2013,07,14,08,54,18.20
2013,07,14,08,55,18.20
2013,07,14,08,56,18.20
2013,07,14,08,57,18.20
2013,07,14,08,58,18.20
2013,07,14,08,59,18.20
2013,07,14,09,00,18.20
2013,07,14,09,01,18.30
2013,07,14,09,02,18.30
2013,07,14,09,03,18.40
2013,07,14,09,04,18.40
2013,07,14,09,05,18.50
2013,07,14,09,06,18.50
2013,07,14,09,07,18.60
2013,07,14,09,08,18.60
2013,07,14,09,09,18.60
2013,07,14,09,10,18.60
2013,07,14,09,11,18.60
2013,07,14,09,12,18.70
2013,07,14,09,13,18.70
2013,07,14,09,14,18.70
2013,07,14,09,15,18.80
2013,07,14,09,16,18.80
2013,07,14,09,17,18.80
2013,07,14,09,18,18.70
2013,07,14,09,19,18.70
2013,07,14,09,20,18.70
2013,07,14,09,21,18.70
2013,07,14,09,22,18.60
2013,07,14,09,23,18.60
2013,07,14,09,24,18.60
2013,07,14,09,25,18.50
2013,07,14,09,26,18.60
2013,07,14,09,27,18.60
2013,07,14,09,28,18.60
2013,07,14,09,29,18.60
2013,07,14,09,30,18.60
2013,07,14,09,31,18.70
2013,07,14,09,32,18.80
2013,07,14,09,33,18.90
2013,07,14,09,34,18.90
2013,07,14,09,35,18.90
2013,07,14,09,36,18.90
2013,07,14,09,37,18.90
2013,07,14,09,38,18.90
2013,07,14,09,39,19.00
2013,07,14,09,40,19.00
2013,07,14,09,41,19.10
2013,07,14,09,42,19.10
2013,07,14,09,43,19.20
2013,07,14,09,44,19.20
2013,07,14,09,45,19.20
2013,07,14,09,46,19.30
2013,07,14,09,47,19.40
2013,07,14,09,48,19.50
2013,07,14,09,49,19.60
2013,07,14,09,50,19.60
2013,07,14,09,51,19.70
2013,07,14,09,52,19.70
2013,07,14,09,53,19.70
2013,07,14,09,54,19.70
2013,07,14,09,55,19.80
2013,07,14,09,56,19.80
2013,07,14,09,57,19.80
2013,07,14,09,58,19.80
2013,07,14,09,59,19.70
2013,07,14,10,00,19.70
2013,07,14,10,01,19.60
2013,07,14,10,02,19.60
2013,07,14,10,03,19.60
2013,07,14,10,04,19.60
2013,07,14,10,05,19.50
2013,07,14,10,06,19.50
2013,07,14,10,07,19.50
2013,07,14,10,08,19.40
2013,07,14,10,09,19.30
2013,07,14,10,10,19.30
2013,07,14,10,11,19.30
2013,07,14,10,12,19.30
2013,07,14,10,13,19.30
2013,07,14,10,14,19.30
2013,07,14,10,15,19.30
2013,07,14,10,16,19.30
2013,07,14,10,17,19.30
2013,07,14,10,18,19.30
2013,07,14,10,19,19.30
2013,07,14,10,20,19.30
2013,07,14,10,21,19.30
2013,07,14,10,22,19.30
2013,07,14,10,23,19.30
2013,07,14,10,24,19.30
2013,07,14,10,25,19.30
2013,07,14,10,26,19.20
2013,07,14,10,27,19.20
2013,07,14,10,28,19.20
2013,07,14,10,29,19.20
2013,07,14,10,30,19.20
2013,07,14,10,31,19.30
2013,07,14,10,32,19.30
2013,07,14,10,33,19.40
2013,07,14,10,34,19.40
2013,07,14,10,35,19.40
2013,07,14,10,36,19.50
2013,07,14,10,37,19.50
2013,07,14,10,38,19.60
2013,07,14,10,39,19.60
2013,07,14,10,40,19.60
2013,07,14,10,41,19.70
2013,07,14,10,42,19.80
2013,07,14,10,43,19.80
2013,07,14,10,44,19.80
2013,07,14,10,45,19.80
2013,07,14,10,46,19.80
2013,07,14,10,47,19.80
2013,07,14,10,48,19.80
2013,07,14,10,49,19.80
2013,07,14,10,50,19.80
2013,07,14,10,51,19.80
2013,07,14,10,52,19.80
2013,07,14,10,53,19.90
2013,07,14,10,54,19.90
2013,07,14,10,55,19.90
2013,07,14,10,56,19.90
2013,07,14,10,57,19.90
2013,07,14,10,58,19.90
2013,07,14,10,59,19.80
2013,07,14,11,00,19.80
2013,07,14,11,01,19.80
2013,07,14,11,02,19.80
2013,07,14,11,03,19.70
2013,07,14,11,04,19.70
2013,07,14,11,05,19.70
2013,07,14,11,06,19.80
2013,07,14,11,07,19.90
2013,07,14,11,08,20.00
2013,07,14,11,09,20.00
2013,07,14,11,10,20.00
2013,07,14,11,11,20.10
2013,07,14,11,12,20.20
2013,07,14,11,13,20.20
2013,07,14,11,14,20.30
2013,07,14,11,15,20.30
2013,07,14,11,16,20.40
2013,07,14,11,17,20.40
2013,07,14,11,18,20.50
2013,07,14,11,19,20.50
2013,07,14,11,20,20.50
2013,07,14,11,21,20.40
2013,07,14,11,22,20.40
2013,07,14,11,23,20.40
2013,07,14,11,24,20.40
2013,07,14,11,25,20.40
2013,07,14,11,26,20.40
2013,07,14,11,27,20.30
2013,07,14,11,28,20.30
2013,07,14,11,29,20.30
2013,07,14,11,30,20.40
2013,07,14,11,31,20.30
2013,07,14,11,32,20.30
2013,07,14,11,33,20.20
2013,07,14,11,34,20.10
2013,07,14,11,35,20.10
2013,07,14,11,36,20.10
2013,07,14,11,37,20.20
2013,07,14,11,38,20.20
2013,07,14,11,39,20.30
2013,07,14,11,40,20.20
2013,07,14,11,41,20.30
2013,07,14,11,42,20.30
2013,07,14,11,43,20.20
2013,07,14,11,44,20.20
2013,07,14,11,45,20.20
2013,07,14,11,46,20.30
2013,07,14,11,47,20.30
2013,07,14,11,48,20.30
2013,07,14,11,49,20.30
2013,07,14,11,50,20.20
2013,07,14,11,51,20.20
2013,07,14,11,52,20.20
2013,07,14,11,53,20.30
2013,07,14,11,54,20.40
2013,07,14,11,55,20.50
2013,07,14,11,56,20.60
2013,07,14,11,57,20.70
2013,07,14,11,58,20.70
2013,07,14,11,59,20.70
2013,07,14,12,00,20.70
2013,07,14,12,01,20.60
2013,07,14,12,02,20.70
2013,07,14,12,03,20.70
2013,07,14,12,04,20.80
2013,07,14,12,05,20.90
2013,07,14,12,06,20.90
2013,07,14,12,07,20.90
2013,07,14,12,08,20.90
2013,07,14,12,09,20.90
2013,07,14,12,10,20.90
2013,07,14,12,11,20.90
2013,07,14,12,12,20.90
2013,07,14,12,13,20.90
2013,07,14,12,14,21.00
2013,07,14,12,15,21.00
2013,07,14,12,16,21.10
2013,07,14,12,17,21.00
2013,07,14,12,18,21.00
2013,07,14,12,19,20.90
2013,07,14,12,20,20.80
2013,07,14,12,21,20.60
2013,07,14,12,22,20.60
2013,07,14,12,23,20.50
2013,07,14,12,24,20.40
2013,07,14,12,25,20.30
2013,07,14,12,26,20.30
2013,07,14,12,27,20.30
2013,07,14,12,28,20.30
2013,07,14,12,29,20.30
2013,07,14,12,30,20.30
2013,07,14,12,31,20.40
2013,07,14,12,32,20.50
2013,07,14,12,33,20.50
2013,07,14,12,34,20.70
2013,07,14,12,35,20.90
2013,07,14,12,36,21.10
2013,07,14,12,37,21.20
2013,07,14,12,38,21.30
2013,07,14,12,39,21.30
2013,07,14,12,40,21.40
2013,07,14,12,41,21.30
2013,07,14,12,42,21.10
2013,07,14,12,43,21.00
2013,07,14,12,44,20.90
2013,07,14,12,45,20.90
2013,07,14,12,46,20.90
2013,07,14,12,47,20.80
2013,07,14,12,48,20.80
2013,07,14,12,49,20.80
2013,07,14,12,50,20.90
2013,07,14,12,51,20.90
2013,07,14,12,52,21.00
2013,07,14,12,53,21.00
2013,07,14,12,54,21.10
2013,07,14,12,55,21.20
2013,07,14,12,56,21.20
2013,07,14,12,57,21.20
2013,07,14,12,58,21.20
2013,07,14,12,59,21.20
2013,07,14,13,00,21.20
2013,07,14,13,01,21.10
2013,07,14,13,02,21.00
2013,07,14,13,03,20.90
2013,07,14,13,04,20.90
2013,07,14,13,05,20.90
2013,07,14,13,06,20.90
2013,07,14,13,07,21.00
2013,07,14,13,08,21.10
2013,07,14,13,09,21.10
2013,07,14,13,10,21.20
2013,07,14,13,11,21.20
2013,07,14,13,12,21.20
2013,07,14,13,13,21.30
2013,07,14,13,14,21.30
2013,07,14,13,15,21.40
2013,07,14,13,16,21.40
2013,07,14,13,17,21.50
2013,07,14,13,18,21.50
2013,07,14,13,19,21.60
2013,07,14,13,20,21.60
2013,07,14,13,21,21.60
2013,07,14,13,22,21.60
2013,07,14,13,23,21.60
2013,07,14,13,24,21.50
2013,07,14,13,25,21.40
2013,07,14,13,26,21.40
2013,07,14,13,27,21.30
2013,07,14,13,28,21.30
2013,07,14,13,29,21.30
2013,07,14,13,30,21.30
2013,07,14,13,31,21.30
2013,07,14,13,32,21.40
2013,07,14,13,33,21.40
2013,07,14,13,34,21.40
2013,07,14,13,35,21.40
2013,07,14,13,36,21.40
2013,07,14,13,37,21.50
2013,07,14,13,38,21.60
2013,07,14,13,39,21.70
2013,07,14,13,40,21.80
2013,07,14,13,41,21.80
2013,07,14,13,42,22.00
2013,07,14,13,43,22.00
2013,07,14,13,44,22.10
2013,07,14,13,45,22.20
2013,07,14,13,46,22.30
2013,07,14,13,47,22.40
2013,07,14,13,48,22.40
2013,07,14,13,49,22.30
2013,07,14,13,50,22.30
2013,07,14,13,51,22.20
2013,07,14,13,52,22.10
2013,07,14,13,53,22.10
2013,07,14,13,54,22.10
2013,07,14,13,55,22.00
2013,07,14,13,56,21.80
2013,07,14,13,57,21.60
2013,07,14,13,58,21.60
2013,07,14,13,59,21.60
2013,07,14,14,00,21.50
2013,07,14,14,01,21.50
2013,07,14,14,02,21.50
2013,07,14,14,03,21.50
2013,07,14,14,04,21.60
2013,07,14,14,05,21.60
2013,07,14,14,06,21.50
2013,07,14,14,07,21.40
2013,07,14,14,08,21.40
2013,07,14,14,09,21.50
2013,07,14,14,10,21.50
2013,07,14,14,11,21.60
2013,07,14,14,12,21.70
2013,07,14,14,13,21.80
2013,07,14,14,14,21.90
2013,07,14,14,15,22.00
2013,07,14,14,16,22.20
2013,07,14,14,17,22.40
2013,07,14,14,18,22.50
2013,07,14,14,19,22.60
2013,07,14,14,20,22.70
2013,07,14,14,21,22.70
2013,07,14,14,22,22.80
2013,07,14,14,23,22.90
2013,07,14,14,24,23.00
2013,07,14,14,25,23.10
2013,07,14,14,26,23.10
2013,07,14,14,27,23.20
2013,07,14,14,28,23.30
2013,07,14,14,29,23.30
2013,07,14,14,30,23.20
2013,07,14,14,31,23.10
2013,07,14,14,32,23.10
2013,07,14,14,33,23.10
2013,07,14,14,34,23.10
2013,07,14,14,35,23.20
2013,07,14,14,36,23.40
2013,07,14,14,37,23.50
2013,07,14,14,38,23.70
2013,07,14,14,39,23.80
2013,07,14,14,40,23.90
2013,07,14,14,41,23.90
2013,07,14,14,42,23.90
2013,07,14,14,43,23.90
2013,07,14,14,44,23.90
2013,07,14,14,45,23.70
2013,07,14,14,46,23.60
2013,07,14,14,47,23.50
2013,07,14,14,48,23.40
2013,07,14,14,49,23.20
2013,07,14,14,50,23.10
2013,07,14,14,51,23.10
2013,07,14,14,52,22.90
2013,07,14,14,53,22.70
2013,07,14,14,54,22.70
2013,07,14,14,55,22.60
2013,07,14,14,56,22.60
2013,07,14,14,57,22.50
2013,07,14,14,58,22.50
2013,07,14,14,59,22.60
2013,07,14,15,00,22.60
2013,07,14,15,01,22.60
2013,07,14,15,02,22.50
2013,07,14,15,03,22.40
2013,07,14,15,04,22.40
2013,07,14,15,05,22.40
2013,07,14,15,06,22.40
2013,07,14,15,07,22.50
2013,07,14,15,08,22.50
2013,07,14,15,09,22.60
2013,07,14,15,10,22.60
2013,07,14,15,11,22.60
2013,07,14,15,12,22.60
2013,07,14,15,13,22.60
2013,07,14,15,14,22.60
2013,07,14,15,15,22.70
2013,07,14,15,16,22.70
2013,07,14,15,17,22.80
2013,07,14,15,18,22.90
2013,07,14,15,19,23.00
2013,07,14,15,20,23.10
2013,07,14,15,21,23.20
2013,07,14,15,22,23.30
2013,07,14,15,23,23.30
2013,07,14,15,24,23.30
2013,07,14,15,25,23.30
2013,07,14,15,26,23.30
2013,07,14,15,27,23.30
2013,07,14,15,28,23.30
2013,07,14,15,29,23.30
2013,07,14,15,30,23.30
2013,07,14,15,31,23.40
2013,07,14,15,32,23.40
2013,07,14,15,33,23.40
2013,07,14,15,34,23.50
2013,07,14,15,35,23.50
2013,07,14,15,36,23.50
2013,07,14,15,37,23.50
2013,07,14,15,38,23.60
2013,07,14,15,39,23.60
2013,07,14,15,40,23.70
2013,07,14,15,41,23.50
2013,07,14,15,42,23.50
2013,07,14,15,43,23.40
2013,07,14,15,44,23.40
2013,07,14,15,45,23.30
2013,07,14,15,46,23.30
2013,07,14,15,47,23.30
2013,07,14,15,48,23.30
2013,07,14,15,49,23.30
2013,07,14,15,50,23.40
2013,07,14,15,51,23.30
2013,07,14,15,52,23.30
2013,07,14,15,53,23.30
2013,07,14,15,54,23.20
2013,07,14,15,55,23.00
2013,07,14,15,56,23.00
2013,07,14,15,57,22.90
2013,07,14,15,58,22.80
2013,07,14,15,59,22.80
2013,07,14,16,00,22.70
2013,07,14,16,01,22.60
2013,07,14,16,02,22.60
2013,07,14,16,03,22.60
2013,07,14,16,04,22.50
2013,07,14,16,05,22.40
2013,07,14,16,06,22.50
2013,07,14,16,07,22.50
2013,07,14,16,08,22.60
2013,07,14,16,09,22.60
2013,07,14,16,10,22.60
2013,07,14,16,11,22.70
2013,07,14,16,12,22.70
2013,07,14,16,13,22.80
2013,07,14,16,14,22.80
2013,07,14,16,15,22.80
2013,07,14,16,16,22.80
2013,07,14,16,17,22.90
2013,07,14,16,18,22.80
2013,07,14,16,19,22.80
2013,07,14,16,20,22.80
2013,07,14,16,21,22.80
2013,07,14,16,22,22.70
2013,07,14,16,23,22.70
2013,07,14,16,24,22.60
2013,07,14,16,25,22.50
2013,07,14,16,26,22.40
2013,07,14,16,27,22.40
2013,07,14,16,28,22.40
2013,07,14,16,29,22.30
2013,07,14,16,30,22.10
2013,07,14,16,31,22.00
2013,07,14,16,32,21.90
2013,07,14,16,33,21.80
2013,07,14,16,34,21.80
2013,07,14,16,35,21.80
2013,07,14,16,36,21.70
2013,07,14,16,37,21.60
2013,07,14,16,38,21.60
2013,07,14,16,39,21.60
2013,07,14,16,40,21.60
2013,07,14,16,41,21.60
2013,07,14,16,42,21.60
2013,07,14,16,43,21.60
2013,07,14,16,44,21.60
2013,07,14,16,45,21.70
2013,07,14,16,46,21.80
2013,07,14,16,47,21.80
2013,07,14,16,48,21.90
2013,07,14,16,49,21.90
2013,07,14,16,50,22.00
2013,07,14,16,51,22.00
2013,07,14,16,52,22.00
2013,07,14,16,53,22.10
2013,07,14,16,54,22.10
2013,07,14,16,55,22.10
2013,07,14,16,56,22.10
2013,07,14,16,57,22.10
2013,07,14,16,58,22.00
2013,07,14,16,59,21.90
2013,07,14,17,00,21.90
2013,07,14,17,01,21.80
2013,07,14,17,02,21.70
2013,07,14,17,03,21.70
2013,07,14,17,04,21.60
2013,07,14,17,05,21.60
2013,07,14,17,06,21.60
2013,07,14,17,07,21.60
2013,07,14,17,08,21.60
2013,07,14,17,09,21.70
2013,07,14,17,10,21.70
2013,07,14,17,11,21.70
2013,07,14,17,12,21.70
2013,07,14,17,13,21.70
2013,07,14,17,14,21.70
2013,07,14,17,15,21.60
2013,07,14,17,16,21.60
2013,07,14,17,17,21.60
2013,07,14,17,18,21.50
2013,07,14,17,19,21.50